Weather History for New Bern, NC

Change the Weather History Date:

Thursday, April 11, 2013

  Actual Average Record
Temperature  
Mean Temperature 74 °F 61 °F  
Max Temperature 85 °F 73 °F 87 °F (1981)
Min Temperature 62 °F 49 °F 33 °F (1966)
Degree Days  
Heating Degree Days 0 6  
Month to date heating degree days 85 76  
Since 1 July heating degree days 2493 2591  
Cooling Degree Days 9 2  
Month to date cooling degree days 26 12  
Year to date cooling degree days 34 26  
Growing Degree Days 22 (Base 50)    
Moisture  
Dew Point 62 °F    
Average Humidity 71    
Maximum Humidity 93    
Minimum Humidity 49    
Precipitation  
Precipitation 0.00 in 0.10 in 1.43 in (1956)
Month to date precipitation 0.44 1.18  
Year to date precipitation 7.75 13.25  
Snow  
Snow 0.00 in - - ()
Month to date snowfall 0.0  
Since 1 July snowfall T  
Snow Depth 0.00 in    
Sea Level Pressure  
Sea Level Pressure 29.97 in    
Wind  
Wind Speed 10 mph (SSW)    
Max Wind Speed 21 mph    
Max Gust Speed 29 mph    
Visibility 10 miles    
Events      
T = Trace of Precipitation, MM = Missing Value Source: NWS Daily Summary

Daily Weather History Graph

Daily Weather History Graph

Search for Another Location

Airport:

Trip Planner

Search our weather history database for the weather conditions in past years. The results will help you decide how hot, cold, wet, or windy it might be!

Date:

Astronomy

Apr. 11, 2013 Rise Set
Actual Time 6:41 AM EDT 7:37 PM EDT
Civil Twilight 6:15 AM EDT 8:03 PM EDT
Nautical Twilight 5:44 AM EDT 8:34 PM EDT
Astronomical Twilight 5:12 AM EDT 9:06 PM EDT
Moon 7:14 AM EDT (4/11) 9:05 PM EDT (4/11)
Length of Visible Light 13h 48m
Length of Day
12h 56m
New Moon, 2% of the Moon is Illuminated
Apr 11
New Moon
Apr 18
First Quarter
Apr 25
Full
May 2
Last Quarter
May 9
New

Hourly Weather History & Observations

Time (EDT) Temp. Heat Index Dew Point Humidity Pressure Visibility Wind Dir Wind Speed Gust Speed Precip Events Conditions
12:54 AM 64.9 °F - 59.0 °F 81% 30.03 in 10.0 mi SSW 6.9 mph - N/A   Clear
1:54 AM 64.0 °F - 59.0 °F 84% 30.02 in 10.0 mi SSW 5.8 mph - N/A   Clear
2:54 AM 64.0 °F - 60.1 °F 87% 30.01 in 10.0 mi SW 8.1 mph - N/A   Clear
3:54 AM 63.0 °F - 60.1 °F 90% 30.00 in 10.0 mi SSW 4.6 mph - N/A   Clear
4:54 AM 62.1 °F - 59.0 °F 90% 30.00 in 10.0 mi SSW 4.6 mph - N/A   Clear
5:54 AM 64.0 °F - 61.0 °F 90% 30.02 in 10.0 mi SW 6.9 mph - N/A   Clear
6:54 AM 63.0 °F - 61.0 °F 93% 30.02 in 10.0 mi SW 5.8 mph - N/A   Clear
7:54 AM 66.9 °F - 62.1 °F 84% 30.04 in 10.0 mi SW 4.6 mph - N/A   Clear
8:54 AM 72.0 °F - 64.0 °F 76% 30.04 in 10.0 mi WSW 9.2 mph - N/A   Clear
9:54 AM 77.0 °F - 63.0 °F 62% 30.04 in 10.0 mi SW 11.5 mph - N/A   Clear
10:54 AM 79.0 °F - 64.0 °F 60% 30.03 in 10.0 mi WSW 12.7 mph 20.7 mph N/A   Mostly Cloudy
11:54 AM 79.0 °F - 60.1 °F 52% 30.01 in 10.0 mi SW 15.0 mph 23.0 mph N/A   Mostly Cloudy
1:54 PM 81.0 °F 81.3 °F 59.0 °F 47% 29.96 in 10.0 mi WSW 9.2 mph 17.3 mph N/A   Overcast
2:54 PM 82.9 °F 84.0 °F 63.0 °F 51% 29.94 in 10.0 mi SSW 15.0 mph 20.7 mph N/A   Mostly Cloudy
3:54 PM 82.0 °F 83.4 °F 64.0 °F 54% 29.90 in 10.0 mi South 13.8 mph 25.3 mph N/A   Scattered Clouds
4:54 PM 80.1 °F 81.7 °F 64.0 °F 58% 29.90 in 10.0 mi South 15.0 mph 25.3 mph N/A   Mostly Cloudy
5:54 PM 78.1 °F - 64.0 °F 62% 29.90 in 10.0 mi SSW 12.7 mph 25.3 mph N/A   Partly Cloudy
6:54 PM 75.9 °F - 64.9 °F 69% 29.90 in 10.0 mi SSW 12.7 mph - N/A   Clear
7:54 PM 73.9 °F - 66.0 °F 76% 29.90 in 10.0 mi South 12.7 mph 19.6 mph N/A   Clear
8:54 PM 72.0 °F - 64.0 °F 76% 29.91 in 10.0 mi South 11.5 mph - N/A   Mostly Cloudy
9:54 PM 70.0 °F - 64.0 °F 81% 29.92 in 10.0 mi SSW 8.1 mph - N/A   Clear
10:54 PM 70.0 °F - 64.0 °F 81% 29.91 in 10.0 mi SSW 6.9 mph - N/A   Clear
11:54 PM 70.0 °F - 64.9 °F 84% 29.90 in 10.0 mi South 6.9 mph - N/A   Clear